Portada
METAR-TAF:

METAR-TAF

Aeroports :

Yasuj, Iran

latitud: 30-41-49N, longitud: 051-33E, altitud: 1825 m

Observació

L'informe es va fer fa 35 minuts, a les 03:00 UTC
Vent calma
Temperatura 22°C
Humitat 31%
Pressió 1016 hPa
Visibilitat 10 km o més
sense núvols per sota de 1500 mi sense presència de cumulonimbus.

METAR: OISY 180300Z 00000KT CAVOK 22/04 Q1016

Hora: 08:05 (03:35 UTC)


TAF: manca

Observacions i pronòstics meteorològics de més de 4000 aeroports (METAR i TAF).

Les estacions disponibles són els punts grocs i vermells al mapa.

Posi el ratolí al punt desitjat per veure el nom de l'estació.

Feu clic per veure les observacions i els pronòstics meteorològics.

Per canviar el mapa: feu clic els botons verds amb una creu de color negre per apropar; al botó verd amb un guió per allunyar la imatge; o en les fletxes verdes per a mapes adjacents.


METAR-TAF: